ATLAS 5 CENTAUR DEB, 44645

Orbit data source: Space-Track

ATLAS 5 CENTAUR DEB, 44645 is space debris in HEO originally from a launch on Wed, 17 Oct 2018 UTC launched from the Air Force Eastern Test Range (AFETR). Debris objects in space refer to the collection of defunct objects orbiting the Earth. Examples of debris include non-operational satellites, rocket bodies, and fragments generated from explosions, collisions, or faulty payload assembly.

Loading next visibility...
Identifier
44645, 2018-079F
Orbit
HEO
Country
Flag of USUS
Related business
Flag of USUnited Launch Alliance/Lockheed Martin (US)
Manufacturer
ULA Decatur
Mission
Spacecraft
Bus & Motor
Unknown
Mass
Unknown
Launch date (UTC)
2018-10-17 (7 years ago)
Launch vehicle
Unknown
Launch site
Air Force Eastern Test Range (AFETR)
Object type
Payload
Rocket body
Debris
Shape & HBR
Unknown shape, 1.1 m
Radar Cross Section
RCS unknown

Expand to show TLE details & history
Last TLE update: 4 weeks ago

TLE from 4 weeks ago
0 ATLAS 5 CENTAUR DEB
1 44645U 18079F   25278.38411216 -.00000115  00000-0  00000-0 0  9996
2 44645  13.1844  39.4265 4635358 309.9729  17.7334  1.89806152 48207
Epoch: 2025-10-05T09:13Z
TLE epoch observation values (Epoch: 2025-10-05T09:13:07.290Z)
Latitude
-0.00003°
Longitude
-113.14056°
Altitude
10,259.457 km
Speed
5.784 km/s
True Right ascension
02h 37m 46s
True Declination
0° 00' 00"
Sunlit
Object was in daylight at epoch
Visualization orbit readout
Latitude
Unknown
Longitude
Unknown
Altitude
Unknown
Speed
Unknown
Apparent Right ascension
Unknown
Apparent Declination
Unknown
Sunlit
N/A
Visualization observer readout
Local Sidereal Time
12:20:32
Azimuth
Unknown
Elevation
Unknown
Doppler factor
Unknown
Orbital elements
Apogee altitude
33,952.213 km
Perigee altitude
8,405.095 km
Semi-major axis
27,556.791 km
Eccentricity
0.46354
Inclination
13.1844°
RAAN
39.4265°
Arg. of periapsis
309.9729°
True anomaly
50.22158°
Mean anomaly
17.7334°
Eccentric anomaly
31.68219°
Mean motion
0.47446 °/min
Orbital period
758.76 mins
BSTAR
0
Loading maneuver chart data...
Computing Atmospheric mass density...

Documentation

Showing up to 5 results
|